CTV795 WAOO-WAHS

Flight info

Callsign CTV795
Flight time N/A
Altitude 36000
Route RITBO DCT LASEM
Aircraft A320/M-SDE3FGHIRWY/LB1

Departure

Time 2026-05-08 13:29
Airport Syamsudin Noor International Airport (WAOO)

Arrival

Time N/A
Airport Jenderal Ahmad Yani Airport (WAHS)
Time Latitude Longitude Altitude Speed Heading
2026-05-08 13:07 -3.43847 114.76056 70 ft 0 kts 10°
2026-05-08 13:21 -3.43866 114.76052 72 ft 4 kts
2026-05-08 13:21 -3.43893 114.76049 65 ft 4 kts
2026-05-08 13:22 -3.43920 114.76051 68 ft 4 kts 340°
2026-05-08 13:22 -3.43937 114.76063 70 ft 2 kts 282°
2026-05-08 13:22 -3.43937 114.76065 70 ft 0 kts 280°
2026-05-08 13:25 -3.43926 114.76004 75 ft 18 kts 280°
2026-05-08 13:25 -3.43903 114.75879 72 ft 18 kts 281°
2026-05-08 13:25 -3.43883 114.75775 75 ft 13 kts 281°
2026-05-08 13:25 -3.43893 114.75703 65 ft 10 kts 219°
2026-05-08 13:26 -3.43949 114.75692 75 ft 8 kts 186°
2026-05-08 13:26 -3.44000 114.75684 70 ft 9 kts 195°
2026-05-08 13:26 -3.44091 114.75659 71 ft 15 kts 211°
2026-05-08 13:26 -3.44104 114.75565 69 ft 14 kts 282°
2026-05-08 13:27 -3.44088 114.75471 70 ft 13 kts 280°
2026-05-08 13:27 -3.44070 114.75378 72 ft 14 kts 281°
2026-05-08 13:27 -3.44051 114.75285 72 ft 15 kts 285°
2026-05-08 13:27 -3.44008 114.75197 71 ft 12 kts 272°
2026-05-08 13:28 -3.44029 114.75193 67 ft 4 kts 128°
2026-05-08 13:28 -3.44042 114.75229 68 ft 0 kts 97°
2026-05-08 13:28 -3.44047 114.75254 68 ft 21 kts 100°
2026-05-08 13:28 -3.44125 114.75678 75 ft 98 kts 100°
2026-05-08 13:29 -3.44288 114.76551 78 ft 155 kts 100°
2026-05-08 13:29 -3.44515 114.77668 551 ft 169 kts 102°
2026-05-08 13:29 -3.44770 114.78856 1143 ft 179 kts 102°
2026-05-08 13:29 -3.45055 114.80083 1824 ft 184 kts 108°
2026-05-08 13:30 -3.45701 114.81275 2217 ft 209 kts 127°
2026-05-08 13:30 -3.46810 114.82347 2658 ft 236 kts 141°
2026-05-08 13:30 -3.48327 114.83165 3197 ft 259 kts 158°
2026-05-08 13:30 -3.50130 114.83535 4017 ft 270 kts 174°
2026-05-08 13:31 -3.52030 114.83349 4953 ft 279 kts 193°
2026-05-08 13:31 -3.53822 114.82560 5867 ft 286 kts 212°
2026-05-08 13:31 -3.55293 114.81201 6745 ft 292 kts 232°
2026-05-08 13:31 -3.56247 114.79403 7623 ft 296 kts 250°
2026-05-08 13:32 -3.56931 114.77451 8490 ft 299 kts 250°
2026-05-08 13:32 -3.57628 114.75481 9364 ft 302 kts 250°
2026-05-08 13:32 -3.58338 114.73484 10153 ft 307 kts 250°
2026-05-08 13:32 -3.59083 114.71402 10463 ft 330 kts 250°
2026-05-08 13:33 -3.59879 114.69189 10952 ft 342 kts 250°
2026-05-08 13:33 -3.60695 114.66928 11662 ft 348 kts 249°
2026-05-08 13:33 -3.61519 114.64642 12400 ft 351 kts 249°
2026-05-08 13:33 -3.62351 114.62329 13124 ft 355 kts 249°
2026-05-08 13:34 -3.63303 114.60038 13801 ft 358 kts 240°
2026-05-08 13:34 -3.64710 114.57984 14414 ft 359 kts 227°
2026-05-08 13:34 -3.66535 114.56282 15029 ft 360 kts 215°
2026-05-08 13:34 -3.68568 114.54802 15652 ft 363 kts 215°
2026-05-08 13:35 -3.70615 114.53308 16274 ft 365 kts 215°
2026-05-08 13:35 -3.72672 114.51799 16892 ft 368 kts 215°
2026-05-08 13:35 -3.74741 114.50275 17509 ft 371 kts 215°
2026-05-08 13:35 -3.76823 114.48736 18124 ft 374 kts 216°
2026-05-08 13:36 -3.78922 114.47182 18629 ft 377 kts 216°
2026-05-08 13:36 -3.81038 114.45615 19120 ft 380 kts 215°
2026-05-08 13:36 -3.83177 114.44033 19616 ft 383 kts 215°
2026-05-08 13:36 -3.85328 114.42445 20105 ft 386 kts 216°
2026-05-08 13:37 -3.87503 114.40840 20574 ft 390 kts 216°
2026-05-08 13:37 -3.89699 114.39218 21030 ft 394 kts 216°
2026-05-08 13:37 -3.91915 114.37582 21454 ft 398 kts 214°
2026-05-08 13:37 -3.94159 114.35927 21885 ft 402 kts 216°
2026-05-08 13:38 -3.96422 114.34259 22293 ft 407 kts 215°
2026-05-08 13:38 -3.98714 114.32567 22706 ft 411 kts 216°
2026-05-08 13:38 -4.01023 114.30863 23133 ft 414 kts 216°
2026-05-08 13:38 -4.03353 114.29142 23508 ft 419 kts 215°
2026-05-08 13:39 -4.05704 114.27403 23862 ft 421 kts 216°
2026-05-08 13:39 -4.08068 114.25657 24250 ft 423 kts 216°
2026-05-08 13:39 -4.10443 114.23904 24607 ft 426 kts 216°
2026-05-08 13:39 -4.12828 114.22143 24988 ft 427 kts 216°
2026-05-08 13:40 -4.15227 114.20374 25358 ft 429 kts 215°
2026-05-08 13:40 -4.17642 114.18593 25703 ft 432 kts 216°
2026-05-08 13:40 -4.19247 114.17410 25946 ft 433 kts 216°
2026-05-08 13:40 -4.21675 114.15617 26299 ft 435 kts 215°
2026-05-08 13:41 -4.24948 114.13199 26762 ft 438 kts 216°
2026-05-08 13:41 -4.26578 114.11994 27012 ft 439 kts 216°
2026-05-08 13:41 -4.29042 114.10175 27340 ft 442 kts 216°
2026-05-08 13:41 -4.31526 114.08341 27668 ft 444 kts 216°
2026-05-08 13:42 -4.34014 114.06503 28013 ft 446 kts 216°
2026-05-08 13:42 -4.36520 114.04652 28301 ft 449 kts 216°
2026-05-08 13:42 -4.39039 114.02790 28631 ft 451 kts 216°
2026-05-08 13:42 -4.41571 114.00917 28943 ft 453 kts 216°
2026-05-08 13:43 -4.44112 113.99035 29254 ft 456 kts 216°
2026-05-08 13:43 -4.46667 113.97145 29584 ft 457 kts 216°
2026-05-08 13:43 -4.49270 113.95223 29882 ft 460 kts 216°
2026-05-08 13:43 -4.51817 113.93340 30169 ft 461 kts 216°
2026-05-08 13:44 -4.54402 113.91426 30430 ft 463 kts 216°
2026-05-08 13:44 -4.56996 113.89504 30718 ft 464 kts 216°
2026-05-08 13:44 -4.59590 113.87584 30999 ft 465 kts 216°
2026-05-08 13:44 -4.62234 113.85631 31265 ft 466 kts 216°
2026-05-08 13:45 -4.64847 113.83703 31539 ft 467 kts 216°
2026-05-08 13:45 -4.67455 113.81775 31909 ft 465 kts 216°
2026-05-08 13:45 -4.70054 113.79850 32304 ft 463 kts 216°
2026-05-08 13:45 -4.72638 113.77933 32706 ft 461 kts 216°
2026-05-08 13:46 -4.75215 113.76026 33095 ft 460 kts 216°
2026-05-08 13:46 -4.77734 113.74163 33789 ft 449 kts 216°
2026-05-08 13:46 -4.80255 113.72302 34407 ft 442 kts 216°
2026-05-08 13:46 -4.82722 113.70479 34757 ft 440 kts 216°
2026-05-08 13:47 -4.85178 113.68662 35049 ft 433 kts 216°
2026-05-08 13:47 -4.87549 113.66906 34764 ft 418 kts 216°
2026-05-08 13:47 -4.89863 113.65194 34197 ft 408 kts 216°
2026-05-08 13:47 -4.92130 113.63517 33580 ft 401 kts 216°
2026-05-08 13:48 -4.94360 113.61866 33035 ft 395 kts 216°
2026-05-08 13:48 -4.96510 113.60270 32912 ft 384 kts 216°
2026-05-08 13:48 -4.98654 113.58678 32748 ft 374 kts 216°
2026-05-08 13:48 -5.00731 113.57133 32424 ft 369 kts 216°
2026-05-08 13:49 -5.02789 113.55605 32046 ft 367 kts 216°
2026-05-08 13:49 -5.04835 113.54092 31671 ft 364 kts 216°
2026-05-08 13:49 -5.06842 113.52606 31296 ft 363 kts 215°
2026-05-08 13:49 -5.08869 113.51105 30831 ft 366 kts 215°
2026-05-08 13:50 -5.10942 113.49570 30151 ft 374 kts 216°
2026-05-08 13:50 -5.13058 113.48003 29400 ft 382 kts 215°
2026-05-08 13:50 -5.15230 113.46392 28907 ft 380 kts 216°
2026-05-08 13:50 -5.17325 113.44838 28773 ft 369 kts 215°
2026-05-08 13:51 -5.19359 113.43329 28648 ft 358 kts 216°
2026-05-08 13:51 -5.21337 113.41864 28431 ft 350 kts 216°
2026-05-08 13:51 -5.23285 113.40422 28090 ft 346 kts 216°
2026-05-08 13:51 -5.25217 113.38990 27725 ft 343 kts 216°
2026-05-08 13:52 -5.27129 113.37575 27409 ft 340 kts 216°
2026-05-08 13:52 -5.29020 113.36176 27058 ft 337 kts 216°
2026-05-08 13:52 -5.30900 113.34783 26721 ft 334 kts 216°
2026-05-08 13:52 -5.32766 113.33400 26381 ft 332 kts 216°
2026-05-08 13:53 -5.34615 113.32027 26051 ft 329 kts 216°
2026-05-08 13:53 -5.36458 113.30659 25418 ft 330 kts 216°
2026-05-08 13:53 -5.38307 113.29287 24838 ft 329 kts 216°
2026-05-08 13:53 -5.40135 113.27931 24337 ft 325 kts 216°
2026-05-08 13:54 -5.41948 113.26586 23759 ft 327 kts 216°
2026-05-08 13:54 -5.43870 113.25157 22943 ft 362 kts 216°
2026-05-08 13:54 -5.45940 113.23620 22073 ft 371 kts 216°
2026-05-08 13:54 -5.48009 113.22084 21241 ft 368 kts 216°
2026-05-08 13:55 -5.50057 113.20562 20313 ft 367 kts 214°
2026-05-08 13:55 -5.52117 113.19034 19277 ft 371 kts 214°
2026-05-08 13:55 -5.56288 113.15939 17133 ft 373 kts 214°
2026-05-08 13:56 -5.58373 113.14390 16033 ft 373 kts 215°
2026-05-08 13:56 -5.60457 113.12840 14964 ft 373 kts 215°
2026-05-08 13:56 -5.62517 113.11310 14487 ft 356 kts 215°
2026-05-08 13:56 -5.64437 113.09882 14364 ft 331 kts 216°
2026-05-08 13:57 -5.66164 113.08484 14224 ft 310 kts 225°
2026-05-08 13:57 -5.67422 113.06790 14065 ft 297 kts 235°
2026-05-08 13:57 -5.68535 113.05089 14008 ft 287 kts 235°
2026-05-08 13:57 -5.69609 113.03446 14509 ft 277 kts 236°
2026-05-08 13:58 -5.70662 113.01835 13770 ft 272 kts 236°
2026-05-08 13:58 -5.71682 113.00276 13722 ft 263 kts 236°
2026-05-08 13:58 -5.72679 112.98753 13667 ft 259 kts 235°
2026-05-08 13:58 -5.73666 112.97246 13615 ft 258 kts 235°
2026-05-08 13:59 -5.74652 112.95738 13559 ft 258 kts 236°
2026-05-08 13:59 -5.75676 112.94169 13510 ft 285 kts 236°
2026-05-08 13:59 -5.76792 112.92457 13442 ft 299 kts 235°
2026-05-08 13:59 -5.77938 112.90700 13378 ft 302 kts 236°
2026-05-08 14:00 -5.79090 112.88933 13310 ft 302 kts 235°
2026-05-08 14:00 -5.80237 112.87171 13056 ft 300 kts 235°
2026-05-08 14:00 -5.81376 112.85422 12724 ft 299 kts 236°
2026-05-08 14:00 -5.82512 112.83678 12396 ft 298 kts 234°
2026-05-08 14:01 -5.83643 112.81939 12069 ft 297 kts 234°
2026-05-08 14:01 -5.84767 112.80207 11743 ft 296 kts 236°
2026-05-08 14:01 -5.85891 112.78478 11422 ft 295 kts 234°
2026-05-08 14:01 -5.87007 112.76762 11123 ft 292 kts 235°
2026-05-08 14:02 -5.88115 112.75057 10805 ft 291 kts 234°
2026-05-08 14:02 -5.89218 112.73360 10476 ft 290 kts 234°
2026-05-08 14:02 -5.90318 112.71670 10159 ft 288 kts 233°
2026-05-08 14:02 -5.91416 112.69989 9848 ft 287 kts 234°
2026-05-08 14:03 -5.92508 112.68316 9500 ft 286 kts 234°
2026-05-08 14:03 -5.93556 112.66623 9140 ft 286 kts 242°
2026-05-08 14:03 -5.94235 112.64765 8973 ft 279 kts 248°
2026-05-08 14:03 -5.94849 112.62974 8982 ft 263 kts 248°
2026-05-08 14:04 -5.95432 112.61288 8988 ft 251 kts 249°
2026-05-08 14:04 -5.96029 112.59581 8991 ft 264 kts 248°
2026-05-08 14:04 -5.96640 112.57825 8989 ft 268 kts 249°
2026-05-08 14:04 -5.97251 112.56058 8989 ft 266 kts 248°
2026-05-08 14:05 -5.97837 112.54346 8985 ft 252 kts 248°
2026-05-08 14:05 -5.98394 112.52703 8988 ft 246 kts 248°
2026-05-08 14:05 -5.98946 112.51078 8988 ft 246 kts 249°
2026-05-08 14:05 -5.99498 112.49456 8989 ft 245 kts 249°
2026-05-08 14:06 -6.00050 112.47838 8991 ft 245 kts 248°
2026-05-08 14:06 -6.00630 112.46157 8996 ft 271 kts 249°
2026-05-08 14:06 -6.01270 112.44309 8993 ft 285 kts 249°
2026-05-08 14:06 -6.01920 112.42422 8991 ft 287 kts 249°
2026-05-08 14:07 -6.02573 112.40527 8992 ft 290 kts 249°
2026-05-08 14:07 -6.03240 112.38583 8991 ft 296 kts 249°
2026-05-08 14:07 -6.03913 112.36620 8990 ft 298 kts 250°
2026-05-08 14:07 -6.04585 112.34648 8990 ft 299 kts 249°
2026-05-08 14:08 -6.05261 112.32675 8992 ft 299 kts 250°
2026-05-08 14:08 -6.05935 112.30703 8983 ft 299 kts 249°
2026-05-08 14:08 -6.06606 112.28733 8984 ft 298 kts 249°
2026-05-08 14:08 -6.07277 112.26762 8987 ft 298 kts 249°